Location: Clarion
(42.7316°N, 93.7330°W)
Time: 08:59:30
(UTC+00:00)

H-2A R/B - Pass Details

Date: 22 April 2026
Orbit: 549 x 612 km, 98.5° (Epoch: 17 May)

Event Time Altitude Azimuth Distance (km) Brightness Sun altitude
Rises 09:07:32 0° 31° (NNE) 2,760 6.7 -22.1°
Reaches altitude 10° 09:10:21 10° 52° (NE) 1,848 5.6 -21.7°
Maximum altitude 09:12:56 17° 93° (E) 1,458 4.5 -21.4°
Drops below altitude 10° 09:15:30 10° 134° (SE) 1,824 4.5 -21.0°
Enters shadow 09:17:06 - 149° (SSE) 2,305 4.9 -20.8°
